Location: Waco, TX
(31.5480°N, 97.1670°W)
Time: 15:29:26
(UTC-05:00)

ISS - Pass Details

Date: 14 September 2019
Orbit: 411 x 421 km, 51.6° (Epoch: 17 September)

Event Time Altitude Azimuth Distance (km) Brightness Sun altitude
Rises 07:03:50 0° 305° (NW) 2,350 -0.4 -2.6°
Reaches altitude 10° 07:06:04 10° 294° (WNW) 1,487 -1.5 -2.1°
Maximum altitude 07:09:03 31° 230° (SW) 752 -2.9 -1.5°
Drops below altitude 10° 07:12:03 10° 166° (SSE) 1,484 -0.8 -0.8°
Sets 07:14:17 0° 156° (SSE) 2,345 0.3 -0.4°
